Greenville, SC

7:48 PM EDT on August 22, 2017 (GMT -0400)
Donaldson Center

Weather History for KGYH - November, 2012

Change the Weather History Date:

Friday, November 9, 2012

  Actual Average (KGMU) Record (KGMU)
Temperature  
Mean Temperature 49 °F -  
Max Temperature 66 °F 61 °F 80 °F (2005)
Min Temperature 32 °F 43 °F 33 °F (1996)
Degree Days  
Heating Degree Days 16    
Moisture  
Dew Point 32 °F    
Average Humidity 64    
Maximum Humidity 93    
Minimum Humidity 23    
Precipitation  
Precipitation 0.00 in - - ()
Sea Level Pressure  
Sea Level Pressure 30.22 in    
Wind  
Wind Speed 1 mph (West)    
Max Wind Speed 8 mph    
Max Gust Speed -    
Visibility 10 miles    
Events      
Averages and records for this station are not official NWS values.
T = Trace of Precipitation, MM = Missing Value Source: NWS Daily Summary

Daily Weather History Graph

Daily Weather History Graph

Search for Another Location

Airport or City:

Trip Planner

Search our weather history database for the weather conditions in past years. The results will help you decide how hot, cold, wet, or windy it might be!

Date:

Astronomy

Nov. 09, 2012 Rise Set
Actual Time 6:58 AM EST 5:28 PM EST
Civil Twilight 6:31 AM EST 5:54 PM EST
Nautical Twilight 6:01 AM EST 6:24 PM EST
Astronomical Twilight 5:31 AM EST 6:54 PM EST
Moon 2:06 AM EST (11/9) 2:31 PM EST (11/9)
Length of Visible Light 11h 23m
Length of Day
10h 30m
Waning Crescent, 23% of the Moon is Illuminated
Nov 9
Waning Crescent
Nov 13
New
Nov 20
First Quarter
Nov 28
Full
Dec 6
Last Quarter

Hourly Weather History & Observations

Time (EST) Temp. Windchill Dew Point Humidity Pressure Visibility Wind Dir Wind Speed Gust Speed Precip Events Conditions
12:15 AM 42.8 °F - 32.0 °F 66% 30.16 in 10.0 mi Calm Calm - N/A   Clear
12:35 AM 41.0 °F - 32.0 °F 70% 30.16 in 10.0 mi Calm Calm - N/A   Clear
12:55 AM 42.8 °F - 32.0 °F 66% 30.16 in 10.0 mi Calm Calm - N/A   Clear
1:15 AM 39.2 °F - 32.0 °F 75% 30.16 in 10.0 mi Calm Calm - N/A   Clear
1:35 AM 35.6 °F - 32.0 °F 87% 30.16 in 10.0 mi Calm Calm - N/A   Clear
1:55 AM 37.4 °F - 32.0 °F 81% 30.17 in 10.0 mi Calm Calm - N/A   Clear
2:15 AM 33.8 °F - 32.0 °F 93% 30.18 in 10.0 mi Calm Calm - N/A   Clear
2:35 AM 33.8 °F - 32.0 °F 93% 30.18 in 10.0 mi Calm Calm - N/A   Clear
2:55 AM 35.6 °F - 32.0 °F 87% 30.18 in 10.0 mi Calm Calm - N/A   Clear
3:15 AM 37.4 °F - 32.0 °F 81% 30.17 in 10.0 mi Calm Calm - N/A   Clear
3:35 AM 37.4 °F - 32.0 °F 81% 30.18 in 10.0 mi Calm Calm - N/A   Clear
3:55 AM 35.6 °F - 32.0 °F 87% 30.18 in 10.0 mi Calm Calm - N/A   Clear
4:15 AM 37.4 °F - 32.0 °F 81% 30.18 in 10.0 mi Calm Calm - N/A   Clear
4:35 AM 35.6 °F 31.7 °F 32.0 °F 87% 30.18 in 10.0 mi WNW 4.6 mph - N/A   Clear
4:55 AM 37.4 °F 34.9 °F 32.0 °F 81% 30.19 in 10.0 mi NW 3.5 mph - N/A   Clear
5:15 AM 35.6 °F - 32.0 °F 87% 30.20 in 10.0 mi Calm Calm - N/A   Clear
5:35 AM 32.0 °F - 30.2 °F 93% 30.20 in 10.0 mi Calm Calm - N/A   Clear
6:47 AM 35.6 °F 31.7 °F 32.0 °F 87% 30.23 in 10.0 mi WNW 4.6 mph - N/A   Clear
7:47 AM 39.2 °F 33.6 °F 32.0 °F 75% 30.25 in 10.0 mi WNW 8.1 mph - N/A   Clear
8:47 AM 46.4 °F 43.5 °F 32.0 °F 57% 30.28 in 10.0 mi NW 5.8 mph - N/A   Clear
9:47 AM 55.4 °F - 30.2 °F 38% 30.28 in 10.0 mi Calm Calm - N/A   Clear
10:47 AM 59.0 °F - 28.4 °F 31% 30.29 in 10.0 mi SSW 4.6 mph - N/A   Clear
11:47 AM 62.6 °F - 30.2 °F 30% 30.27 in 10.0 mi West 4.6 mph - N/A   Clear
12:47 PM 64.4 °F - 26.6 °F 24% 30.25 in 10.0 mi WNW 5.8 mph - N/A   Clear
1:47 PM 66.2 °F - 26.6 °F 23% 30.22 in 10.0 mi SSE 3.5 mph - N/A   Clear
2:47 PM 35.6 °F 30.7 °F 28.4 °F 75% 30.20 in 10.0 mi SW 5.8 mph - N/A   Clear
3:47 PM 66.2 °F - 26.6 °F 23% 30.19 in 10.0 mi SW 4.6 mph - N/A   Clear
4:47 PM 64.4 °F - 28.4 °F 26% 30.19 in 10.0 mi WSW 3.5 mph - N/A   Clear
5:50 PM 57.2 °F - 30.2 °F 36% 30.21 in 10.0 mi Calm Calm - N/A   Clear
6:47 PM 57.2 °F - 30.2 °F 36% 30.22 in 10.0 mi Calm Calm - N/A   Clear
7:47 PM 53.6 °F - 32.0 °F 44% 30.23 in 10.0 mi Calm Calm - N/A   Clear
8:15 PM 50.0 °F - 32.0 °F 50% 30.24 in 10.0 mi West 3.5 mph - N/A   Clear
8:47 PM 46.4 °F - 33.8 °F 62% 30.24 in 10.0 mi Calm Calm - N/A   Clear
8:55 PM 50.0 °F - 33.8 °F 54% 30.25 in 10.0 mi West 3.5 mph - N/A   Clear
9:15 PM 46.4 °F - 33.8 °F 62% 30.25 in 10.0 mi Calm Calm - N/A   Clear
9:35 PM 46.4 °F - 33.8 °F 62% 30.25 in 10.0 mi Calm Calm - N/A   Clear
9:55 PM 50.0 °F - 32.0 °F 50% 30.26 in 10.0 mi Calm Calm - N/A   Clear
10:35 PM 46.4 °F 45.2 °F 33.8 °F 62% 30.26 in 10.0 mi WNW 3.5 mph - N/A   Clear
10:55 PM 46.4 °F - 33.8 °F 62% 30.26 in 10.0 mi Calm Calm - N/A   Clear
11:15 PM 44.6 °F - 33.8 °F 66% 30.26 in 10.0 mi Calm Calm - N/A   Clear
11:35 PM 42.8 °F 41.1 °F 33.8 °F 70% 30.26 in 10.0 mi NNW 3.5 mph - N/A   Clear
11:55 PM 41.0 °F - 33.8 °F 76% 30.26 in 10.0 mi Calm Calm - N/A   Clear